Helicity
127 75 56 46 38 37 37 30 25 16 13 45 42 40 39 35 39 48 54 69 71 63 55 44 42 42 50 58 64 66 65 57 47 51 127 176 157 167 190 206 170 133 167
151 77 57 49 40 39 33 30 24 21 47 40 40 51 48 41 45 51 56 55 62 59 46 43 45 51 52 54 49 54 56 40 24 23 25 145 158 156 166 154 143 116 102
123 55 53 45 49 43 37 24 33 50 57 52 51 42 40 39 36 51 53 62 56 47 46 43 41 42 44 41 35 40 47 68 15 98 92 88 86 106 106 132 137 125 117
65 56 61 53 54 48 48 48 46 50 58 46 52 53 31 24 33 54 50 55 42 44 41 38 39 39 35 28 21 21 13 26 58 92 92 56 61 79 74 63 96 120 98
28 62 76 60 66 58 55 50 58 71 51 41 40 40 24 7 41 48 55 50 45 45 43 40 36 29 22 12 6 8 -1 -58 -68 58 44 94 52 79 61 88 59 76 92
40 139 65 65 71 66 56 65 78 70 59 40 39 24 16 27 44 42 57 37 43 42 38 32 25 14 7 9 13 28 72 93 16 58 31 46 66 66 80 41 27 22 29
92 84 69 67 72 64 72 80 79 86 72 56 38 20 18 23 36 46 43 39 39 39 33 28 22 20 23 23 19 22 42 72 72 74 48 41 41 44 42 65 13 4 11
127 89 62 67 73 69 74 77 102 95 75 45 23 18 18 19 26 43 41 36 40 39 35 27 27 29 24 15 -1 -3 32 37 52 58 40 30 39 30 34 38 36 21 15
93 125 60 57 75 78 76 93 98 88 72 49 21 15 10 26 32 36 30 36 39 35 29 28 32 31 18 -9 -33 -33 -18 -25 46 48 41 30 44 28 33 26 45 46 34
130 99 65 30 44 41 39 76 77 68 52 22 10 21 29 30 31 31 25 30 35 33 34 41 43 39 8 -30 -39 -54 -88 -2 60 46 36 34 64 64 55 73 76 61 60
133 72 42 26 51 41 38 48 50 43 29 8 3 -8 -27 1 2 5 68 30 36 37 38 35 30 26 3 -47 -45 -44 -32 50 58 43 24 48 50 55 69 84 109 122 117
98 75 68 32 48 23 42 17 23 19 4 6 9 5 1 0 33 44 42 37 40 46 39 15 16 38 14 32 31 -16 32 53 60 32 14 51 36 34 54 73 83 128 156
96 75 53 79 37 27 38 20 8 -15 5 -7 2 -8 30 18 20 15 11 10 17 3 18 5 31 17 29 25 34 22 23 45 66 35 25 43 71 37 44 43 64 88 133
90 79 31 68 47 37 20 7 20 18 4 -1 -1 17 14 2 2 3 5 34 3 26 26 11 71 43 33 36 33 30 36 46 73 34 22 50 61 81 57 42 37 74 109
108 55 56 68 51 45 16 35 22 14 0 16 10 5 0 16 17 11 30 21 41 30 35 39 50 47 38 30 30 33 35 41 56 72 23 36 54 64 72 65 52 49 50
125 65 63 67 55 45 23 35 24 12 12 19 3 6 8 20 20 40 32 37 38 41 40 40 43 51 47 58 43 35 48 50 54 42 27 22 32 47 71 71 75 72 67
141 72 55 58 58 45 53 31 12 8 12 5 4 20 10 22 19 32 48 39 51 55 44 39 34 35 36 39 59 36 42 26 45 30 16 21 0 35 53 68 77 86 79
130 75 49 51 61 51 51 29 12 29 7 15 28 17 20 27 29 21 38 53 51 39 34 38 32 33 27 39 49 51 58 52 44 29 34 31 17 28 31 43 66 84 82
112 84 58 56 67 58 54 29 18 46 11 24 21 23 27 27 31 15 44 65 28 38 34 34 35 34 44 45 51 48 48 56 25 49 37 15 19 16 57 42 41 62 53
134 85 66 53 60 56 55 18 20 44 15 30 28 25 38 24 29 23 50 52 24 35 34 36 40 35 42 52 61 55 39 35 31 34 23 13 38 5 21 34 25 61 40
132 105 80 72 76 60 57 44 48 51 23 12 18 49 41 35 34 36 43 38 22 32 42 46 50 50 49 52 42 75 69 43 22 26 19 10 42 9 26 25 8 48 31
125 101 78 63 76 47 43 31 26 31 32 25 11 55 39 49 40 35 37 38 26 48 43 47 39 50 40 31 6 11 34 123 99 52 25 19 15 1 23 23 36 40 37
126 120 98 77 72 48 34 32 34 36 36 43 49 53 40 49 46 29 45 33 40 37 46 53 49 38 62 64 29 23 13 63 101 199 74 40 25 7 16 27 33 34 41
107 93 89 82 86 51 37 54 64 56 70 58 72 50 43 39 39 50 50 40 41 27 50 67 64 50 42 74 80 55 45 49 38 86 140 90 31 9 25 26 44 34 36
101 111 90 97 96 64 51 44 72 41 44 72 76 81 63 59 47 53 57 50 49 38 65 74 101 76 75 51 78 88 71 62 52 51 39 148 63 54 41 22 53 37 46
119 104 110 119 109 88 88 43 91 65 62 98 82 74 68 73 52 50 62 58 59 67 89 92 103 100 109 98 85 81 76 62 63 74 66 69 85 127 87 75 45 43 49
Wind_Speed
39 36 26 26 29 34 36 37 36 32 27 30 29 28 28 28 30 33 35 35 39 40 42 45 47 49 50 50 50 49 48 48 49 52 52 53 52 50 50 49 50 49 48
39 35 26 26 27 30 32 36 36 35 32 30 30 29 27 28 29 30 31 34 38 40 43 46 47 50 51 51 50 49 48 49 50 51 53 50 52 51 49 49 49 48 48
38 35 27 25 26 29 31 29 33 34 33 30 29 28 27 28 28 31 33 36 39 41 44 46 49 51 52 51 50 50 49 51 48 54 54 52 51 50 48 48 47 47 46
39 35 29 25 24 27 28 30 29 32 33 31 29 28 27 26 29 33 36 39 41 43 45 48 50 51 51 51 50 50 50 52 55 52 53 53 53 49 48 46 45 45 46
40 37 29 26 25 25 26 28 26 29 31 32 31 29 27 25 31 33 35 39 42 44 46 48 49 50 51 51 51 52 53 51 44 53 52 51 49 50 48 45 45 43 41
38 34 30 26 25 24 24 25 26 27 29 31 32 31 29 32 34 34 35 38 41 44 46 48 49 50 52 53 53 53 54 55 51 52 51 49 47 45 45 41 36 37 35
34 33 30 26 25 24 24 24 25 27 28 28 28 30 28 33 36 35 36 38 41 44 46 48 50 52 54 54 54 54 53 55 53 52 51 49 45 38 33 32 29 30 35
32 33 31 28 26 24 23 23 24 24 25 25 25 27 28 32 35 35 37 39 41 44 46 48 50 52 53 54 54 53 54 53 53 51 50 47 40 36 34 26 28 30 36
30 30 29 29 27 25 23 23 23 23 23 24 24 25 27 31 33 34 36 38 41 43 46 48 50 51 52 53 53 53 52 52 52 49 47 42 37 37 36 28 32 34 37
30 28 28 28 27 26 25 23 22 23 24 25 26 29 29 31 33 33 35 36 39 42 44 46 48 49 50 51 49 47 47 51 49 47 45 40 37 39 38 37 37 37 39
27 28 26 25 25 26 27 25 24 23 24 27 31 35 37 32 31 32 32 35 37 40 42 44 45 46 46 49 50 48 48 47 47 44 42 39 39 37 38 39 41 43 44
25 25 24 23 24 26 25 27 26 28 31 29 30 31 28 28 27 29 31 33 35 38 40 40 40 38 32 43 44 46 47 45 46 41 40 39 39 38 38 39 40 40 41
23 21 22 20 22 24 24 25 27 29 27 27 24 26 24 25 27 27 28 30 32 32 35 33 33 36 46 46 45 45 43 42 41 38 38 39 40 39 39 41 41 40 42
23 22 24 19 19 20 23 24 23 22 24 24 24 24 26 25 24 24 25 28 28 33 35 38 42 42 42 43 43 43 43 43 38 35 36 38 39 40 41 41 42 43 42
21 21 23 19 20 21 25 22 24 25 26 24 24 25 24 22 22 22 24 26 31 33 36 38 38 38 39 39 40 40 41 41 39 34 33 37 40 41 40 41 42 42 44
19 22 25 22 22 24 26 24 23 24 23 22 23 22 20 20 20 21 23 26 30 34 37 39 39 38 39 38 38 39 40 39 39 37 30 34 38 39 41 40 40 41 44
22 27 28 25 22 27 25 24 25 25 20 24 21 18 18 17 18 20 23 25 29 34 35 36 37 39 39 39 39 37 36 36 36 37 37 31 33 38 39 39 40 41 44
26 29 31 26 25 28 24 26 24 19 24 21 18 19 17 16 16 18 21 24 27 30 32 35 37 39 41 39 39 37 36 36 36 36 38 40 40 32 36 39 40 42 46
25 28 31 28 25 25 23 23 22 21 22 20 18 19 17 16 16 17 20 23 24 28 30 33 36 37 38 40 39 39 37 36 35 37 37 38 38 42 35 35 36 38 44
25 27 30 31 33 29 22 23 20 19 22 17 17 17 18 16 15 16 19 21 22 26 28 31 34 37 39 40 40 41 39 37 36 37 38 37 39 40 40 36 30 35 41
25 28 32 33 36 34 27 24 22 20 21 19 15 14 18 18 16 15 17 19 21 23 26 29 31 34 37 37 36 35 34 35 36 38 39 41 40 38 39 39 41 41 35
28 32 35 36 36 36 31 28 24 26 22 20 19 16 18 18 18 16 17 18 20 23 24 25 27 30 34 33 36 37 36 31 31 35 39 39 41 40 37 38 41 42 45
31 34 37 39 39 39 35 29 25 24 19 17 17 21 20 20 20 18 18 19 19 20 21 22 22 23 28 32 32 36 42 45 43 32 35 37 40 40 41 37 41 43 45
32 35 37 39 39 40 39 33 30 26 24 20 17 23 23 23 22 20 18 18 17 17 17 18 19 20 21 26 31 32 35 38 43 40 31 33 36 39 40 42 40 41 44
33 34 37 38 38 39 39 36 30 27 26 20 17 23 25 23 24 21 19 18 15 14 13 15 18 18 21 23 26 31 33 35 34 38 47 34 34 32 37 39 44 43 43
30 31 36 39 39 38 37 38 32 28 23 19 20 21 22 23 25 22 20 17 14 10 10 12 13 16 19 23 26 27 29 33 37 35 37 38 41 34 35 37 38 42 44
Wind_Direction
77 77 49 39 37 49 54 55 51 39 14 25 23 16 18 14 21 28 33 33 34 31 28 30 31 29 30 29 26 24 21 17 25 26 21 16 15 15 13 11 13 13 11
76 78 52 41 38 40 43 54 57 52 35 27 24 21 16 17 21 29 32 36 32 30 30 30 29 28 27 25 24 23 21 19 22 24 23 15 13 14 11 9 8 8 7
80 78 57 41 40 42 42 29 48 50 44 29 21 19 19 21 26 40 39 38 34 34 33 33 33 33 32 29 27 22 15 10 17 19 16 17 15 10 7 6 5 4 3
89 83 66 49 38 35 29 39 39 47 46 33 25 27 20 22 39 48 50 44 42 41 39 37 36 32 28 24 20 14 9 14 25 24 18 21 19 14 12 12 7 5 7
98 85 63 54 41 28 19 36 29 42 40 37 35 34 29 29 57 56 52 46 46 43 41 39 35 31 26 22 15 11 7 9 44 25 22 15 17 13 14 7 11 7 2
90 65 68 54 41 28 16 33 39 38 39 41 47 46 39 55 62 59 50 47 45 44 42 39 34 29 25 22 18 13 9 6 32 30 27 18 9 8 6 4 1 7 3
75 67 73 56 40 27 23 32 39 39 37 41 45 48 44 61 66 60 53 49 47 45 41 37 34 31 27 25 23 21 20 18 28 25 21 18 10 359 351 351 354 359 5
67 76 75 60 43 30 25 33 38 38 39 41 45 46 48 62 67 60 57 53 51 47 43 40 36 33 30 29 28 25 20 26 32 26 23 16 4 0 355 341 348 356 4
73 66 70 62 48 33 28 33 39 42 43 48 49 49 53 65 67 61 57 55 52 49 46 42 39 36 34 33 33 33 31 38 34 25 18 9 1 1 359 346 353 356 2
74 71 73 72 61 54 57 40 44 47 55 58 62 65 65 69 70 63 58 53 52 50 47 45 43 40 36 34 33 35 31 29 27 24 13 2 357 4 5 7 2 359 3
69 86 80 74 61 63 65 62 56 58 64 72 77 83 86 75 72 67 50 54 50 48 46 45 46 47 46 40 33 30 26 26 27 19 9 355 3 357 2 7 9 10 12
90 93 85 75 68 76 64 78 75 80 86 84 83 91 67 72 64 58 54 51 46 44 43 46 51 54 62 31 32 31 25 30 27 16 6 350 354 10 2 359 1 359 360
100 92 93 70 78 79 72 77 85 93 84 89 79 78 63 65 68 63 60 55 49 57 45 52 47 39 11 12 20 17 24 25 26 9 356 353 353 355 8 1 357 356 356
105 102 111 87 84 77 83 87 82 81 87 88 86 78 82 79 76 70 61 42 48 29 25 21 20 24 25 23 21 21 13 18 28 17 354 349 349 347 353 4 4 359 355
102 108 110 97 96 90 98 80 89 94 99 89 89 93 90 72 64 56 42 36 20 26 24 24 29 29 29 27 26 24 22 26 20 8 351 350 350 349 350 353 2 3 0
102 113 115 109 105 104 106 96 93 99 96 92 95 93 77 69 65 44 45 36 29 21 21 21 30 32 27 30 30 22 16 18 23 350 0 352 359 358 353 354 353 354 356
112 121 123 118 110 116 102 103 104 106 96 105 97 81 88 62 61 48 36 35 24 20 27 34 33 27 29 31 26 28 26 20 20 360 336 358 4 359 358 353 351 352 351
119 127 128 122 119 122 110 112 109 96 114 104 91 94 87 71 60 51 41 30 29 34 32 33 28 26 19 28 24 30 26 19 11 3 344 332 329 360 4 356 355 355 353
120 126 130 127 125 124 115 113 111 106 116 109 101 104 105 92 80 71 42 34 51 40 42 40 33 35 36 27 23 21 22 18 12 359 352 341 338 327 346 357 4 4 358
123 128 133 133 135 132 118 118 110 108 121 108 107 110 113 107 91 76 47 51 60 49 47 44 45 39 33 30 23 16 15 14 10 1 345 346 340 334 332 344 2 4 2
128 133 137 138 140 140 132 128 123 118 126 118 109 101 119 116 110 94 66 75 74 62 56 57 52 48 44 43 36 29 23 20 11 2 351 337 340 335 336 340 337 344 3
140 142 144 145 145 147 141 138 129 133 131 129 127 116 127 125 124 112 101 93 90 70 79 70 68 59 48 49 38 30 22 23 21 12 356 344 336 333 336 338 341 344 343
149 150 152 152 152 154 149 142 134 131 125 129 133 136 142 139 137 133 121 112 100 92 91 86 80 73 55 50 48 39 21 11 5 13 8 354 340 332 324 336 338 342 345
156 157 156 156 155 157 157 152 150 144 142 141 136 144 145 149 147 142 131 126 113 108 93 87 86 85 71 55 49 46 36 23 12 6 12 5 354 337 327 325 335 344 345
158 159 162 161 161 161 162 160 155 156 152 136 137 147 150 150 153 150 143 137 125 113 86 82 61 66 57 51 49 43 37 30 27 16 355 7 3 351 338 333 330 337 346
160 159 164 167 168 167 168 170 164 163 155 144 147 150 153 151 157 158 152 146 135 113 74 63 58 38 41 38 39 40 36 29 21 20 9 2 350 353 347 339 340 340 344